Time,TemperatureF,DewpointF,PressureIn,WindDirection,WindDirectionDegrees,WindSpeedMPH,WindSpeedGustMPH,Humidity,HourlyPrecipIn,Conditions,Clouds,dailyrainin,SoftwareType,DateUTC
2013-07-14 00:01:00,73.3,70.2,30.02,NNE,20,0.0,1.0,90,0.00,,,0.00,Wunderground v.1.15,2013-07-14 04:01:00,
2013-07-14 00:02:00,73.4,70.3,30.02,NNE,20,0.0,1.0,90,0.00,,,0.00,Wunderground v.1.15,2013-07-14 04:02:00,
2013-07-14 00:03:00,73.5,70.4,30.02,NNE,20,0.0,1.0,90,0.00,,,0.00,Wunderground v.1.15,2013-07-14 04:03:00,
2013-07-14 00:04:00,73.6,70.5,30.02,NNE,20,0.0,1.0,90,0.00,,,0.00,Wunderground v.1.15,2013-07-14 04:04:00,
2013-07-14 00:09:00,73.6,70.8,30.03,NNE,20,0.0,0.0,91,0.00,,,0.00,Wunderground v.1.15,2013-07-14 04:09:00,
2013-07-14 00:14:00,73.2,70.7,30.03,NNE,20,0.0,0.0,92,0.00,,,0.00,Wunderground v.1.15,2013-07-14 04:14:00,
2013-07-14 00:15:00,73.1,70.6,30.02,NNE,20,0.0,0.0,92,0.00,,,0.00,Wunderground v.1.15,2013-07-14 04:15:00,
2013-07-14 00:20:00,73.1,69.0,30.03,ESE,116,0.0,1.0,87,0.00,,,0.00,Wunderground v.1.15,2013-07-14 04:20:00,
2013-07-14 00:25:00,73.6,70.8,30.03,East,94,0.0,1.0,91,0.00,,,0.00,Wunderground v.1.15,2013-07-14 04:25:00,
2013-07-14 00:31:00,72.8,70.3,30.03,North,10,1.0,1.0,92,0.00,,,0.00,Wunderground v.1.15,2013-07-14 04:31:00,
2013-07-14 00:36:00,72.3,70.2,30.03,North,2,1.0,1.0,93,0.00,,,0.00,Wunderground v.1.15,2013-07-14 04:36:00,
2013-07-14 00:41:00,72.3,70.2,30.03,North,355,0.0,2.0,93,0.00,,,0.00,Wunderground v.1.15,2013-07-14 04:41:00,
2013-07-14 00:46:00,72.2,70.1,30.03,NNE,12,0.0,0.0,93,0.00,,,0.00,Wunderground v.1.15,2013-07-14 04:46:00,
2013-07-14 00:51:00,72.0,69.9,30.03,NNW,340,3.0,3.0,93,0.00,,,0.00,Wunderground v.1.15,2013-07-14 04:51:00,
2013-07-14 00:57:00,72.1,69.6,30.03,NNW,337,2.0,2.0,92,0.00,,,0.00,Wunderground v.1.15,2013-07-14 04:57:00,
2013-07-14 01:02:00,72.2,69.7,30.03,NNW,345,1.0,2.0,92,0.00,,,0.00,Wunderground v.1.15,2013-07-14 05:02:00,
2013-07-14 01:07:00,72.2,69.7,30.03,NNW,339,1.0,1.0,92,0.00,,,0.00,Wunderground v.1.15,2013-07-14 05:07:00,
2013-07-14 01:12:00,72.2,69.7,30.03,North,1,0.0,1.0,92,0.00,,,0.00,Wunderground v.1.15,2013-07-14 05:12:00,
2013-07-14 01:17:00,72.4,69.9,30.03,North,10,0.0,0.0,92,0.00,,,0.00,Wunderground v.1.15,2013-07-14 05:17:00,
2013-07-14 01:23:00,72.6,70.1,30.03,NNE,30,0.0,0.0,92,0.00,,,0.00,Wunderground v.1.15,2013-07-14 05:23:00,
2013-07-14 01:28:00,72.6,69.8,30.03,NNE,30,0.0,0.0,91,0.00,,,0.00,Wunderground v.1.15,2013-07-14 05:28:00,
2013-07-14 01:33:00,72.5,70.0,30.03,NNE,30,0.0,0.0,92,0.00,,,0.00,Wunderground v.1.15,2013-07-14 05:33:00,
2013-07-14 01:38:00,72.2,69.7,30.03,NNE,15,1.0,1.0,92,0.00,,,0.00,Wunderground v.1.15,2013-07-14 05:38:00,
2013-07-14 01:43:00,72.0,69.9,30.03,North,8,0.0,1.0,93,0.00,,,0.00,Wunderground v.1.15,2013-07-14 05:43:00,
2013-07-14 01:48:00,71.8,70.0,30.03,NNE,14,0.0,0.0,94,0.00,,,0.00,Wunderground v.1.15,2013-07-14 05:48:00,
2013-07-14 01:53:00,71.5,70.0,30.03,NNE,18,2.0,4.0,95,0.00,,,0.00,Wunderground v.1.15,2013-07-14 05:53:00,
2013-07-14 01:58:00,71.1,69.9,30.02,North,357,3.0,3.0,96,0.00,,,0.00,Wunderground v.1.15,2013-07-14 05:58:00,
2013-07-14 02:03:00,71.0,69.5,30.02,North,3,3.0,4.0,95,0.00,,,0.00,Wunderground v.1.15,2013-07-14 06:03:00,
2013-07-14 02:08:00,71.0,69.5,30.02,North,349,1.0,4.0,95,0.00,,,0.00,Wunderground v.1.15,2013-07-14 06:08:00,
2013-07-14 02:13:00,70.7,69.5,30.02,NE,36,0.0,4.0,96,0.00,,,0.00,Wunderground v.1.15,2013-07-14 06:13:00,
2013-07-14 02:18:00,70.8,69.6,30.02,NNE,17,0.0,2.0,96,0.00,,,0.00,Wunderground v.1.15,2013-07-14 06:18:00,
2013-07-14 02:23:00,71.0,69.5,30.02,NE,39,2.0,4.0,95,0.00,,,0.00,Wunderground v.1.15,2013-07-14 06:23:00,
2013-07-14 02:28:00,70.9,69.7,30.01,NNE,31,0.0,2.0,96,0.00,,,0.00,Wunderground v.1.15,2013-07-14 06:28:00,
2013-07-14 02:33:00,70.7,69.5,30.02,North,4,1.0,3.0,96,0.00,,,0.00,Wunderground v.1.15,2013-07-14 06:33:00,
2013-07-14 02:38:00,70.5,69.3,30.02,NNE,30,0.0,1.0,96,0.00,,,0.00,Wunderground v.1.15,2013-07-14 06:38:00,
2013-07-14 02:43:00,70.5,69.3,30.02,NE,37,0.0,1.0,96,0.00,,,0.00,Wunderground v.1.15,2013-07-14 06:43:00,
2013-07-14 02:48:00,70.4,69.2,30.02,NE,37,0.0,0.0,96,0.00,,,0.00,Wunderground v.1.15,2013-07-14 06:48:00,
2013-07-14 02:53:00,70.3,69.4,30.02,NE,37,0.0,0.0,97,0.00,,,0.00,Wunderground v.1.15,2013-07-14 06:53:00,
2013-07-14 02:58:00,70.2,69.3,30.02,NNE,26,0.0,1.0,97,0.00,,,0.00,Wunderground v.1.15,2013-07-14 06:58:00,
2013-07-14 03:04:00,70.1,69.2,30.02,North,1,1.0,1.0,97,0.00,,,0.00,Wunderground v.1.15,2013-07-14 07:04:00,
2013-07-14 03:09:00,69.9,69.0,30.02,NNE,17,2.0,2.0,97,0.00,,,0.00,Wunderground v.1.15,2013-07-14 07:09:00,
2013-07-14 03:14:00,69.9,69.0,30.02,NNE,13,5.0,5.0,97,0.00,,,0.00,Wunderground v.1.15,2013-07-14 07:14:00,
2013-07-14 03:19:00,69.8,68.9,30.02,North,4,3.0,3.0,97,0.00,,,0.00,Wunderground v.1.15,2013-07-14 07:19:00,
2013-07-14 03:24:00,69.7,68.8,30.02,NNE,23,3.0,4.0,97,0.00,,,0.00,Wunderground v.1.15,2013-07-14 07:24:00,
2013-07-14 03:29:00,69.6,68.7,30.02,North,11,3.0,5.0,97,0.00,,,0.00,Wunderground v.1.15,2013-07-14 07:29:00,
2013-07-14 03:34:00,69.7,68.8,30.02,North,7,3.0,5.0,97,0.00,,,0.00,Wunderground v.1.15,2013-07-14 07:34:00,
2013-07-14 03:39:00,69.8,68.9,30.02,NE,39,1.0,4.0,97,0.00,,,0.00,Wunderground v.1.15,2013-07-14 07:39:00,
2013-07-14 03:44:00,69.7,68.8,30.02,NNW,340,1.0,4.0,97,0.00,,,0.00,Wunderground v.1.15,2013-07-14 07:44:00,
2013-07-14 03:49:00,69.7,68.8,30.02,North,349,2.0,3.0,97,0.00,,,0.00,Wunderground v.1.15,2013-07-14 07:49:00,
2013-07-14 03:54:00,69.7,68.8,30.02,North,6,3.0,4.0,97,0.00,,,0.00,Wunderground v.1.15,2013-07-14 07:54:00,
2013-07-14 03:59:00,69.6,68.4,30.02,NNW,346,2.0,5.0,96,0.00,,,0.00,Wunderground v.1.15,2013-07-14 07:59:00,
2013-07-14 04:04:00,69.7,68.5,30.02,North,360,4.0,5.0,96,0.00,,,0.00,Wunderground v.1.15,2013-07-14 08:04:00,
2013-07-14 04:09:00,70.0,68.2,30.02,North,4,5.0,5.0,94,0.00,,,0.00,Wunderground v.1.15,2013-07-14 08:09:00,
2013-07-14 04:14:00,70.2,68.4,30.02,North,352,2.0,5.0,94,0.00,,,0.00,Wunderground v.1.15,2013-07-14 08:14:00,
2013-07-14 04:19:00,70.2,68.4,30.02,NNW,327,0.0,3.0,94,0.00,,,0.00,Wunderground v.1.15,2013-07-14 08:19:00,
2013-07-14 04:24:00,70.2,68.4,30.02,NNW,329,0.0,3.0,94,0.00,,,0.00,Wunderground v.1.15,2013-07-14 08:24:00,
2013-07-14 04:29:00,70.3,68.5,30.02,North,9,0.0,2.0,94,0.00,,,0.00,Wunderground v.1.15,2013-07-14 08:29:00,
2013-07-14 04:34:00,70.3,68.5,30.02,North,8,0.0,2.0,94,0.00,,,0.00,Wunderground v.1.15,2013-07-14 08:34:00,
2013-07-14 04:39:00,70.3,68.5,30.02,North,8,0.0,1.0,94,0.00,,,0.00,Wunderground v.1.15,2013-07-14 08:39:00,
2013-07-14 04:44:00,70.3,68.5,30.03,North,8,0.0,1.0,94,0.00,,,0.00,Wunderground v.1.15,2013-07-14 08:44:00,
2013-07-14 04:49:00,70.3,68.8,30.03,North,8,0.0,0.0,95,0.00,,,0.00,Wunderground v.1.15,2013-07-14 08:49:00,
2013-07-14 04:54:00,70.0,68.5,30.03,SSW,212,1.0,2.0,95,0.00,,,0.00,Wunderground v.1.15,2013-07-14 08:54:00,
2013-07-14 04:59:00,69.9,68.7,30.03,SSW,193,1.0,2.0,96,0.00,,,0.00,Wunderground v.1.15,2013-07-14 08:59:00,
2013-07-14 05:04:00,69.8,68.6,30.03,SSE,167,1.0,2.0,96,0.00,,,0.00,Wunderground v.1.15,2013-07-14 09:04:00,
2013-07-14 05:09:00,69.8,68.9,30.03,SSW,203,0.0,2.0,97,0.00,,,0.00,Wunderground v.1.15,2013-07-14 09:09:00,
2013-07-14 05:14:00,69.8,68.9,30.03,SSW,208,1.0,2.0,97,0.00,,,0.00,Wunderground v.1.15,2013-07-14 09:14:00,
2013-07-14 05:19:00,69.8,68.9,30.03,SSW,208,0.0,1.0,97,0.00,,,0.00,Wunderground v.1.15,2013-07-14 09:19:00,
2013-07-14 05:24:00,69.8,68.9,30.03,NW,319,1.0,2.0,97,0.00,,,0.00,Wunderground v.1.15,2013-07-14 09:24:00,
2013-07-14 05:29:00,69.7,68.8,30.04,NW,316,1.0,2.0,97,0.00,,,0.00,Wunderground v.1.15,2013-07-14 09:29:00,
2013-07-14 05:34:00,69.8,68.9,30.04,NNW,345,1.0,2.0,97,0.00,,,0.00,Wunderground v.1.15,2013-07-14 09:34:00,
2013-07-14 05:39:00,69.9,68.4,30.04,NNW,332,1.0,1.0,95,0.00,,,0.00,Wunderground v.1.15,2013-07-14 09:39:00,
2013-07-14 05:44:00,70.2,68.4,30.04,NNW,336,1.0,1.0,94,0.00,,,0.00,Wunderground v.1.15,2013-07-14 09:44:00,
2013-07-14 05:49:00,70.4,68.6,30.05,NW,304,1.0,2.0,94,0.00,,,0.00,Wunderground v.1.15,2013-07-14 09:49:00,
2013-07-14 05:54:00,70.4,68.9,30.05,NNW,343,2.0,3.0,95,0.00,,,0.00,Wunderground v.1.15,2013-07-14 09:54:00,
2013-07-14 05:59:00,70.2,68.4,30.05,North,349,3.0,4.0,94,0.00,,,0.00,Wunderground v.1.15,2013-07-14 09:59:00,
2013-07-14 06:04:00,70.2,68.7,30.05,NNE,20,2.0,4.0,95,0.00,,,0.00,Wunderground v.1.15,2013-07-14 10:04:00,
2013-07-14 06:09:00,70.2,68.4,30.05,NNW,345,1.0,2.0,94,0.00,,,0.00,Wunderground v.1.15,2013-07-14 10:09:00,
2013-07-14 06:14:00,70.3,68.8,30.06,NNW,336,0.0,2.0,95,0.00,,,0.00,Wunderground v.1.15,2013-07-14 10:14:00,
2013-07-14 06:19:00,70.3,68.5,30.06,NNW,338,1.0,1.0,94,0.00,,,0.00,Wunderground v.1.15,2013-07-14 10:19:00,
2013-07-14 06:24:00,70.4,68.9,30.06,NNW,334,3.0,3.0,95,0.00,,,0.00,Wunderground v.1.15,2013-07-14 10:24:00,
2013-07-14 06:29:00,70.4,68.6,30.06,NNW,344,1.0,3.0,94,0.00,,,0.00,Wunderground v.1.15,2013-07-14 10:29:00,
2013-07-14 06:34:00,70.4,68.9,30.06,NNE,33,2.0,4.0,95,0.00,,,0.00,Wunderground v.1.15,2013-07-14 10:34:00,
2013-07-14 06:39:00,70.3,69.1,30.06,North,2,2.0,4.0,96,0.00,,,0.00,Wunderground v.1.15,2013-07-14 10:39:00,
2013-07-14 06:44:00,70.1,68.9,30.06,NNW,333,2.0,4.0,96,0.00,,,0.00,Wunderground v.1.15,2013-07-14 10:44:00,
2013-07-14 06:49:00,70.1,68.6,30.06,NNW,337,2.0,4.0,95,0.00,,,0.00,Wunderground v.1.15,2013-07-14 10:49:00,
2013-07-14 06:54:00,70.3,68.8,30.07,NNW,333,0.0,4.0,95,0.00,,,0.00,Wunderground v.1.15,2013-07-14 10:54:00,
2013-07-14 06:59:00,70.3,68.8,30.07,North,353,1.0,2.0,95,0.00,,,0.00,Wunderground v.1.15,2013-07-14 10:59:00,
2013-07-14 07:04:00,70.2,69.0,30.07,North,11,0.0,2.0,96,0.00,,,0.00,Wunderground v.1.15,2013-07-14 11:04:00,
2013-07-14 07:09:00,70.2,69.0,30.07,NNE,30,0.0,1.0,96,0.00,,,0.00,Wunderground v.1.15,2013-07-14 11:09:00,
2013-07-14 07:14:00,70.2,69.0,30.08,NNE,32,0.0,1.0,96,0.00,,,0.00,Wunderground v.1.15,2013-07-14 11:14:00,
2013-07-14 07:19:00,70.1,68.9,30.08,NNE,32,0.0,0.0,96,0.00,,,0.00,Wunderground v.1.15,2013-07-14 11:19:00,
2013-07-14 07:24:00,70.1,68.9,30.08,North,8,0.0,2.0,96,0.00,,,0.00,Wunderground v.1.15,2013-07-14 11:24:00,
2013-07-14 07:29:00,70.0,68.8,30.07,North,10,1.0,3.0,96,0.00,,,0.00,Wunderground v.1.15,2013-07-14 11:29:00,
2013-07-14 07:34:00,70.2,69.0,30.07,NNE,22,0.0,4.0,96,0.00,,,0.00,Wunderground v.1.15,2013-07-14 11:34:00,
2013-07-14 07:39:00,70.3,69.1,30.08,NNE,17,1.0,3.0,96,0.00,,,0.00,Wunderground v.1.15,2013-07-14 11:39:00,
2013-07-14 07:44:00,70.3,68.8,30.08,North,359,0.0,3.0,95,0.00,,,0.00,Wunderground v.1.15,2013-07-14 11:44:00,
2013-07-14 07:49:00,70.5,69.0,30.08,ENE,74,0.0,4.0,95,0.00,,,0.00,Wunderground v.1.15,2013-07-14 11:49:00,
2013-07-14 07:54:00,70.7,68.9,30.08,NNE,18,0.0,4.0,94,0.00,,,0.00,Wunderground v.1.15,2013-07-14 11:54:00,
2013-07-14 07:59:00,70.8,69.3,30.08,NNE,24,0.0,1.0,95,0.00,,,0.00,Wunderground v.1.15,2013-07-14 11:59:00,
2013-07-14 08:04:00,71.0,69.2,30.08,NE,54,0.0,1.0,94,0.00,,,0.00,Wunderground v.1.15,2013-07-14 12:04:00,
2013-07-14 08:09:00,71.3,69.5,30.08,ENE,74,0.0,1.0,94,0.00,,,0.00,Wunderground v.1.15,2013-07-14 12:09:00,
2013-07-14 08:14:00,71.4,69.0,30.08,NE,56,1.0,3.0,92,0.00,,,0.00,Wunderground v.1.15,2013-07-14 12:14:00,
2013-07-14 08:19:00,71.6,69.5,30.08,NNE,24,0.0,1.0,93,0.00,,,0.00,Wunderground v.1.15,2013-07-14 12:19:00,
2013-07-14 08:24:00,71.7,69.6,30.08,North,7,0.0,1.0,93,0.00,,,0.00,Wunderground v.1.15,2013-07-14 12:24:00,
2013-07-14 08:29:00,72.2,69.7,30.08,North,7,0.0,1.0,92,0.00,,,0.00,Wunderground v.1.15,2013-07-14 12:29:00,
2013-07-14 08:34:00,72.2,69.7,30.09,NNW,341,1.0,2.0,92,0.00,,,0.00,Wunderground v.1.15,2013-07-14 12:34:00,
2013-07-14 08:39:00,72.1,69.6,30.09,North,2,3.0,3.0,92,0.00,,,0.00,Wunderground v.1.15,2013-07-14 12:39:00,
2013-07-14 08:44:00,72.0,69.5,30.09,North,9,0.0,4.0,92,0.00,,,0.00,Wunderground v.1.15,2013-07-14 12:44:00,
2013-07-14 08:49:00,72.3,69.8,30.09,North,357,0.0,2.0,92,0.00,,,0.00,Wunderground v.1.15,2013-07-14 12:49:00,
2013-07-14 08:54:00,72.8,70.3,30.09,WNW,297,0.0,2.0,92,0.00,,,0.00,Wunderground v.1.15,2013-07-14 12:54:00,
2013-07-14 08:59:00,73.1,70.3,30.09,North,10,2.0,3.0,91,0.00,,,0.00,Wunderground v.1.15,2013-07-14 12:59:00,
2013-07-14 09:04:00,73.8,71.0,30.10,North,9,0.0,3.0,91,0.00,,,0.00,Wunderground v.1.15,2013-07-14 13:04:00,
2013-07-14 09:09:00,74.3,71.2,30.09,NNW,339,1.0,2.0,90,0.00,,,0.00,Wunderground v.1.15,2013-07-14 13:09:00,
2013-07-14 09:14:00,74.6,71.1,30.10,NNE,17,0.0,5.0,89,0.00,,,0.00,Wunderground v.1.15,2013-07-14 13:14:00,
2013-07-14 09:19:00,74.6,71.5,30.10,NNE,26,5.0,5.0,90,0.00,,,0.00,Wunderground v.1.15,2013-07-14 13:19:00,
2013-07-14 09:24:00,74.5,71.0,30.10,North,10,1.0,6.0,89,0.00,,,0.00,Wunderground v.1.15,2013-07-14 13:24:00,
2013-07-14 09:29:00,74.7,71.2,30.09,North,352,3.0,7.0,89,0.00,,,0.00,Wunderground v.1.15,2013-07-14 13:29:00,
2013-07-14 09:34:00,75.1,71.6,30.10,NNE,15,2.0,7.0,89,0.00,,,0.00,Wunderground v.1.15,2013-07-14 13:34:00,
2013-07-14 09:39:00,75.4,71.6,30.10,North,4,3.0,6.0,88,0.00,,,0.00,Wunderground v.1.15,2013-07-14 13:39:00,
2013-07-14 09:44:00,75.5,71.7,30.10,North,9,3.0,6.0,88,0.00,,,0.00,Wunderground v.1.15,2013-07-14 13:44:00,
2013-07-14 09:49:00,75.6,71.8,30.10,NNE,17,4.0,7.0,88,0.00,,,0.00,Wunderground v.1.15,2013-07-14 13:49:00,
2013-07-14 09:54:00,75.7,71.9,30.10,North,7,3.0,8.0,88,0.00,,,0.00,Wunderground v.1.15,2013-07-14 13:54:00,
2013-07-14 09:59:00,75.8,72.0,30.10,NNE,13,5.0,6.0,88,0.00,,,0.00,Wunderground v.1.15,2013-07-14 13:59:00,
2013-07-14 10:04:00,76.1,72.3,30.10,NNW,347,1.0,6.0,88,0.00,,,0.00,Wunderground v.1.15,2013-07-14 14:04:00,
2013-07-14 10:09:00,76.7,72.2,30.10,North,10,2.0,5.0,86,0.00,,,0.00,Wunderground v.1.15,2013-07-14 14:09:00,
2013-07-14 10:14:00,77.1,72.6,30.09,North,360,5.0,8.0,86,0.00,,,0.00,Wunderground v.1.15,2013-07-14 14:14:00,
2013-07-14 10:19:00,77.9,71.6,30.10,NNE,23,1.0,4.0,81,0.00,,,0.00,Wunderground v.1.15,2013-07-14 14:19:00,
2013-07-14 10:24:00,78.7,71.6,30.09,NE,38,3.0,5.0,79,0.00,,,0.00,Wunderground v.1.15,2013-07-14 14:24:00,
2013-07-14 10:29:00,79.6,71.0,30.10,North,1,1.0,4.0,75,0.00,,,0.00,Wunderground v.1.15,2013-07-14 14:29:00,
2013-07-14 10:34:00,79.6,70.6,30.09,North,4,1.0,8.0,74,0.00,,,0.00,Wunderground v.1.15,2013-07-14 14:34:00,
2013-07-14 10:39:00,79.5,70.5,30.10,East,84,1.0,5.0,74,0.00,,,0.00,Wunderground v.1.15,2013-07-14 14:39:00,
2013-07-14 10:44:00,79.0,70.4,30.10,NNW,346,3.0,7.0,75,0.00,,,0.00,Wunderground v.1.15,2013-07-14 14:44:00,
2013-07-14 10:49:00,78.6,70.4,30.10,NE,49,1.0,6.0,76,0.00,,,0.00,Wunderground v.1.15,2013-07-14 14:49:00,
2013-07-14 10:54:00,78.4,70.6,30.10,NE,39,1.0,6.0,77,0.00,,,0.00,Wunderground v.1.15,2013-07-14 14:54:00,
2013-07-14 10:59:00,78.4,70.6,30.10,North,11,3.0,6.0,77,0.00,,,0.00,Wunderground v.1.15,2013-07-14 14:59:00,
2013-07-14 11:04:00,78.7,70.5,30.10,NE,53,1.0,6.0,76,0.00,,,0.00,Wunderground v.1.15,2013-07-14 15:04:00,
2013-07-14 11:09:00,79.0,70.8,30.10,NW,321,2.0,5.0,76,0.00,,,0.00,Wunderground v.1.15,2013-07-14 15:09:00,
2013-07-14 11:14:00,79.0,70.4,30.10,ENE,76,1.0,6.0,75,0.00,,,0.00,Wunderground v.1.15,2013-07-14 15:14:00,
2013-07-14 11:19:00,79.1,70.1,30.10,WSW,244,1.0,5.0,74,0.00,,,0.00,Wunderground v.1.15,2013-07-14 15:19:00,
2013-07-14 11:24:00,79.7,71.1,30.10,NW,306,0.0,5.0,75,0.00,,,0.00,Wunderground v.1.15,2013-07-14 15:24:00,
2013-07-14 11:29:00,80.1,71.1,30.10,NE,46,2.0,5.0,74,0.00,,,0.00,Wunderground v.1.15,2013-07-14 15:29:00,
2013-07-14 11:34:00,80.6,71.1,30.10,North,355,5.0,5.0,73,0.00,,,0.00,Wunderground v.1.15,2013-07-14 15:34:00,
2013-07-14 11:39:00,80.4,70.9,30.10,NNE,20,1.0,4.0,73,0.00,,,0.00,Wunderground v.1.15,2013-07-14 15:39:00,
2013-07-14 11:44:00,80.5,70.6,30.10,NNE,20,2.0,4.0,72,0.00,,,0.00,Wunderground v.1.15,2013-07-14 15:44:00,
2013-07-14 11:49:00,80.6,71.1,30.10,NNE,23,0.0,3.0,73,0.00,,,0.00,Wunderground v.1.15,2013-07-14 15:49:00,
2013-07-14 11:55:00,80.5,71.0,30.10,ENE,58,1.0,4.0,73,0.00,,,0.00,Wunderground v.1.15,2013-07-14 15:55:00,
2013-07-14 12:00:00,80.1,70.7,30.10,East,90,2.0,5.0,73,0.00,,,0.00,Wunderground v.1.15,2013-07-14 16:00:00,
2013-07-14 12:05:00,79.7,70.7,30.10,NNW,345,2.0,5.0,74,0.00,,,0.00,Wunderground v.1.15,2013-07-14 16:05:00,
2013-07-14 12:10:00,79.7,71.1,30.10,NNE,18,1.0,4.0,75,0.00,,,0.00,Wunderground v.1.15,2013-07-14 16:10:00,
2013-07-14 12:15:00,80.1,71.1,30.10,ENE,77,1.0,4.0,74,0.00,,,0.00,Wunderground v.1.15,2013-07-14 16:15:00,
2013-07-14 12:20:00,80.3,70.9,30.10,East,89,1.0,3.0,73,0.00,,,0.00,Wunderground v.1.15,2013-07-14 16:20:00,
2013-07-14 12:25:00,80.0,70.6,30.10,ENE,75,0.0,3.0,73,0.00,,,0.00,Wunderground v.1.15,2013-07-14 16:25:00,
2013-07-14 12:30:00,80.2,70.8,30.10,East,86,3.0,3.0,73,0.00,,,0.00,Wunderground v.1.15,2013-07-14 16:30:00,
2013-07-14 12:35:00,80.3,70.4,30.10,ESE,112,2.0,5.0,72,0.00,,,0.00,Wunderground v.1.15,2013-07-14 16:35:00,
2013-07-14 12:40:00,80.3,70.4,30.11,East,88,2.0,4.0,72,0.00,,,0.00,Wunderground v.1.15,2013-07-14 16:40:00,
2013-07-14 12:45:00,80.1,70.3,30.11,ENE,75,5.0,5.0,72,0.00,,,0.00,Wunderground v.1.15,2013-07-14 16:45:00,
2013-07-14 12:50:00,79.9,70.1,30.11,ESE,103,4.0,7.0,72,0.00,,,0.00,Wunderground v.1.15,2013-07-14 16:50:00,
2013-07-14 12:55:00,80.1,70.3,30.10,ENE,75,2.0,7.0,72,0.00,,,0.00,Wunderground v.1.15,2013-07-14 16:55:00,
2013-07-14 13:00:00,80.3,70.0,30.10,East,84,2.0,6.0,71,0.00,,,0.00,Wunderground v.1.15,2013-07-14 17:00:00,
2013-07-14 13:05:00,80.7,70.4,30.10,ENE,70,3.0,7.0,71,0.00,,,0.00,Wunderground v.1.15,2013-07-14 17:05:00,
2013-07-14 13:10:00,80.7,70.4,30.10,East,100,4.0,6.0,71,0.00,,,0.00,Wunderground v.1.15,2013-07-14 17:10:00,
2013-07-14 13:15:00,80.8,70.5,30.10,ENE,77,2.0,6.0,71,0.00,,,0.00,Wunderground v.1.15,2013-07-14 17:15:00,
2013-07-14 13:20:00,81.0,70.7,30.10,East,98,5.0,8.0,71,0.00,,,0.00,Wunderground v.1.15,2013-07-14 17:20:00,
2013-07-14 13:25:00,80.9,71.0,30.10,ESE,104,6.0,9.0,72,0.00,,,0.00,Wunderground v.1.15,2013-07-14 17:25:00,
2013-07-14 13:30:00,81.0,71.5,30.10,East,95,4.0,6.0,73,0.00,,,0.00,Wunderground v.1.15,2013-07-14 17:30:00,
2013-07-14 13:35:00,81.0,71.5,30.10,East,86,2.0,6.0,73,0.00,,,0.00,Wunderground v.1.15,2013-07-14 17:35:00,
2013-07-14 13:40:00,81.2,71.3,30.10,East,88,2.0,5.0,72,0.00,,,0.00,Wunderground v.1.15,2013-07-14 17:40:00,
2013-07-14 13:45:00,80.9,69.8,30.10,East,82,11.0,16.0,69,0.00,,,0.00,Wunderground v.1.15,2013-07-14 17:45:00,
2013-07-14 13:50:00,80.7,70.4,30.10,NNE,27,3.0,11.0,71,0.00,,,0.00,Wunderground v.1.15,2013-07-14 17:50:00,
2013-07-14 13:55:00,80.7,69.6,30.10,NE,49,6.0,11.0,69,0.00,,,0.00,Wunderground v.1.15,2013-07-14 17:55:00,
2013-07-14 14:00:00,80.8,70.1,30.10,East,83,3.0,8.0,70,0.00,,,0.00,Wunderground v.1.15,2013-07-14 18:00:00,
2013-07-14 14:05:00,81.2,70.1,30.09,NE,56,2.0,10.0,69,0.00,,,0.00,Wunderground v.1.15,2013-07-14 18:05:00,
2013-07-14 14:10:00,81.2,70.5,30.09,NE,37,3.0,12.0,70,0.00,,,0.00,Wunderground v.1.15,2013-07-14 18:10:00,
2013-07-14 14:15:00,81.6,70.4,30.09,East,82,7.0,12.0,69,0.00,,,0.00,Wunderground v.1.15,2013-07-14 18:15:00,
2013-07-14 14:20:00,81.4,70.7,30.09,ENE,78,3.0,10.0,70,0.00,,,0.00,Wunderground v.1.15,2013-07-14 18:20:00,
2013-07-14 14:25:00,81.6,70.9,30.09,ENE,61,4.0,10.0,70,0.00,,,0.00,Wunderground v.1.15,2013-07-14 18:25:00,
2013-07-14 14:30:00,82.1,70.9,30.09,ENE,73,6.0,10.0,69,0.00,,,0.00,Wunderground v.1.15,2013-07-14 18:30:00,
2013-07-14 14:35:00,82.0,70.8,30.09,NE,50,0.0,10.0,69,0.00,,,0.00,Wunderground v.1.15,2013-07-14 18:35:00,
2013-07-14 14:40:00,82.8,71.6,30.09,North,354,0.0,5.0,69,0.00,,,0.00,Wunderground v.1.15,2013-07-14 18:40:00,
2013-07-14 14:45:00,83.2,70.2,30.09,ESE,108,5.0,10.0,65,0.00,,,0.00,Wunderground v.1.15,2013-07-14 18:45:00,
2013-07-14 14:50:00,82.7,71.1,30.09,ENE,68,4.0,10.0,68,0.00,,,0.00,Wunderground v.1.15,2013-07-14 18:50:00,
2013-07-14 14:55:00,82.3,71.1,30.09,East,89,7.0,15.0,69,0.00,,,0.00,Wunderground v.1.15,2013-07-14 18:55:00,
2013-07-14 15:00:00,82.0,70.8,30.09,East,98,6.0,8.0,69,0.00,,,0.00,Wunderground v.1.15,2013-07-14 19:00:00,
2013-07-14 15:05:00,82.0,71.2,30.09,East,98,5.0,9.0,70,0.00,,,0.00,Wunderground v.1.15,2013-07-14 19:05:00,
2013-07-14 15:10:00,82.1,70.1,30.09,ESE,117,4.0,11.0,67,0.00,,,0.00,Wunderground v.1.15,2013-07-14 19:10:00,
2013-07-14 15:15:00,82.1,70.9,30.09,ESE,105,4.0,11.0,69,0.00,,,0.00,Wunderground v.1.15,2013-07-14 19:15:00,
2013-07-14 15:20:00,82.1,70.5,30.09,East,101,7.0,9.0,68,0.00,,,0.00,Wunderground v.1.15,2013-07-14 19:20:00,
2013-07-14 15:25:00,81.7,70.5,30.10,ESE,115,8.0,9.0,69,0.00,,,0.00,Wunderground v.1.15,2013-07-14 19:25:00,
2013-07-14 15:30:00,81.6,70.9,30.10,SE,127,6.0,8.0,70,0.00,,,0.00,Wunderground v.1.15,2013-07-14 19:30:00,
2013-07-14 15:35:00,81.0,71.5,30.09,SE,142,6.0,8.0,73,0.00,,,0.00,Wunderground v.1.15,2013-07-14 19:35:00,
2013-07-14 15:40:00,80.2,70.8,30.10,ESE,123,4.0,7.0,73,0.00,,,0.00,Wunderground v.1.15,2013-07-14 19:40:00,
2013-07-14 15:45:00,79.7,71.8,30.09,SE,146,4.0,7.0,77,0.00,,,0.00,Wunderground v.1.15,2013-07-14 19:45:00,
2013-07-14 15:50:00,79.3,71.8,30.09,ESE,120,4.0,6.0,78,0.00,,,0.00,Wunderground v.1.15,2013-07-14 19:50:00,
2013-07-14 15:55:00,79.6,72.1,30.09,SE,127,4.0,6.0,78,0.00,,,0.00,Wunderground v.1.15,2013-07-14 19:55:00,
2013-07-14 16:00:00,80.2,71.9,30.09,ESE,109,4.0,6.0,76,0.00,,,0.00,Wunderground v.1.15,2013-07-14 20:00:00,
2013-07-14 16:05:00,80.7,71.6,30.09,ESE,122,5.0,7.0,74,0.00,,,0.00,Wunderground v.1.15,2013-07-14 20:05:00,
2013-07-14 16:10:00,80.8,71.3,30.09,East,86,4.0,10.0,73,0.00,,,0.00,Wunderground v.1.15,2013-07-14 20:10:00,
2013-07-14 16:15:00,79.9,72.8,30.09,ENE,66,9.0,12.0,79,0.00,,,0.00,Wunderground v.1.15,2013-07-14 20:15:00,
2013-07-14 16:20:00,78.2,71.5,30.08,ENE,60,5.0,7.0,80,0.00,,,0.00,Wunderground v.1.15,2013-07-14 20:20:00,
2013-07-14 16:25:00,77.4,70.7,30.08,East,81,2.0,7.0,80,0.00,,,0.00,Wunderground v.1.15,2013-07-14 20:25:00,
2013-07-14 16:30:00,76.8,70.9,30.08,East,98,5.0,7.0,82,0.00,,,0.00,Wunderground v.1.15,2013-07-14 20:30:00,
2013-07-14 16:35:00,76.7,70.1,30.08,East,86,5.0,7.0,80,0.00,,,0.00,Wunderground v.1.15,2013-07-14 20:35:00,
2013-07-14 16:40:00,76.8,70.9,30.08,East,94,4.0,5.0,82,0.00,,,0.00,Wunderground v.1.15,2013-07-14 20:40:00,
2013-07-14 16:45:00,77.1,70.8,30.08,East,81,2.0,5.0,81,0.00,,,0.00,Wunderground v.1.15,2013-07-14 20:45:00,
2013-07-14 16:50:00,77.3,71.4,30.08,SE,137,5.0,5.0,82,0.00,,,0.00,Wunderground v.1.15,2013-07-14 20:50:00,
2013-07-14 16:55:00,77.7,71.4,30.08,ESE,103,4.0,6.0,81,0.00,,,0.00,Wunderground v.1.15,2013-07-14 20:55:00,
2013-07-14 17:00:00,78.0,71.7,30.08,ESE,112,5.0,6.0,81,0.00,,,0.00,Wunderground v.1.15,2013-07-14 21:00:00,
2013-07-14 17:05:00,78.5,71.8,30.08,East,90,4.0,7.0,80,0.00,,,0.00,Wunderground v.1.15,2013-07-14 21:05:00,
2013-07-14 17:10:00,78.7,71.6,30.08,ESE,115,3.0,8.0,79,0.00,,,0.00,Wunderground v.1.15,2013-07-14 21:10:00,
2013-07-14 17:15:00,79.2,71.7,30.07,East,92,6.0,8.0,78,0.00,,,0.00,Wunderground v.1.15,2013-07-14 21:15:00,
2013-07-14 17:20:00,79.5,71.7,30.07,East,101,3.0,7.0,77,0.00,,,0.00,Wunderground v.1.15,2013-07-14 21:20:00,
2013-07-14 17:25:00,79.9,71.7,30.07,NNW,334,3.0,9.0,76,0.00,,,0.00,Wunderground v.1.15,2013-07-14 21:25:00,
2013-07-14 17:30:00,80.1,71.5,30.07,East,90,5.0,10.0,75,0.00,,,0.00,Wunderground v.1.15,2013-07-14 21:30:00,
2013-07-14 17:35:00,80.0,71.0,30.08,NE,40,8.0,19.0,74,0.00,,,0.00,Wunderground v.1.15,2013-07-14 21:35:00,
2013-07-14 17:40:00,79.7,70.7,30.07,East,81,5.0,16.0,74,0.00,,,0.00,Wunderground v.1.15,2013-07-14 21:40:00,
2013-07-14 17:45:00,79.3,71.1,30.08,ESE,117,8.0,16.0,76,0.00,,,0.00,Wunderground v.1.15,2013-07-14 21:45:00,
2013-07-14 17:50:00,79.2,71.0,30.08,East,81,2.0,9.0,76,0.00,,,0.00,Wunderground v.1.15,2013-07-14 21:50:00,
2013-07-14 17:55:00,79.3,71.5,30.08,ENE,57,2.0,9.0,77,0.00,,,0.00,Wunderground v.1.15,2013-07-14 21:55:00,
2013-07-14 18:00:00,79.2,71.4,30.08,East,84,1.0,9.0,77,0.00,,,0.00,Wunderground v.1.15,2013-07-14 22:00:00,
2013-07-14 18:05:00,78.9,71.5,30.08,East,85,10.0,12.0,78,0.00,,,0.00,Wunderground v.1.15,2013-07-14 22:05:00,
2013-07-14 18:10:00,78.9,71.5,30.08,ENE,60,3.0,10.0,78,0.00,,,0.00,Wunderground v.1.15,2013-07-14 22:10:00,
2013-07-14 18:15:00,79.2,71.7,30.08,NE,45,5.0,10.0,78,0.00,,,0.00,Wunderground v.1.15,2013-07-14 22:15:00,
2013-07-14 18:20:00,79.1,71.6,30.08,East,82,5.0,10.0,78,0.00,,,0.00,Wunderground v.1.15,2013-07-14 22:20:00,
2013-07-14 18:25:00,79.3,71.5,30.08,ENE,77,3.0,10.0,77,0.00,,,0.00,Wunderground v.1.15,2013-07-14 22:25:00,
2013-07-14 18:30:00,79.1,71.3,30.08,East,91,7.0,12.0,77,0.00,,,0.00,Wunderground v.1.15,2013-07-14 22:30:00,
2013-07-14 18:35:00,78.9,71.1,30.08,East,86,6.0,15.0,77,0.00,,,0.00,Wunderground v.1.15,2013-07-14 22:35:00,
2013-07-14 18:40:00,78.7,70.9,30.08,East,82,10.0,16.0,77,0.00,,,0.00,Wunderground v.1.15,2013-07-14 22:40:00,
2013-07-14 18:45:00,78.8,71.4,30.08,ENE,64,4.0,16.0,78,0.00,,,0.00,Wunderground v.1.15,2013-07-14 22:45:00,
2013-07-14 18:50:00,78.7,70.1,30.08,East,89,13.0,14.0,75,0.00,,,0.00,Wunderground v.1.15,2013-07-14 22:50:00,
2013-07-14 18:55:00,78.6,70.0,30.08,ENE,77,10.0,20.0,75,0.00,,,0.00,Wunderground v.1.15,2013-07-14 22:55:00,
2013-07-14 19:00:00,78.5,70.3,30.08,East,84,8.0,18.0,76,0.00,,,0.00,Wunderground v.1.15,2013-07-14 23:00:00,
2013-07-14 19:05:00,78.3,70.1,30.09,East,82,12.0,18.0,76,0.00,,,0.00,Wunderground v.1.15,2013-07-14 23:05:00,
2013-07-14 19:10:00,78.3,70.1,30.09,ENE,70,12.0,16.0,76,0.00,,,0.00,Wunderground v.1.15,2013-07-14 23:10:00,
2013-07-14 19:15:00,78.3,69.3,30.09,East,96,12.0,16.0,74,0.00,,,0.00,Wunderground v.1.15,2013-07-14 23:15:00,
2013-07-14 19:20:00,78.5,69.1,30.09,ESE,103,12.0,17.0,73,0.00,,,0.00,Wunderground v.1.15,2013-07-14 23:20:00,
2013-07-14 19:25:00,78.4,69.4,30.09,ENE,72,8.0,17.0,74,0.00,,,0.00,Wunderground v.1.15,2013-07-14 23:25:00,
2013-07-14 19:30:00,78.4,69.4,30.09,East,91,9.0,15.0,74,0.00,,,0.00,Wunderground v.1.15,2013-07-14 23:30:00,
2013-07-14 19:35:00,78.4,69.4,30.09,ESE,107,5.0,15.0,74,0.00,,,0.00,Wunderground v.1.15,2013-07-14 23:35:00,
2013-07-14 19:40:00,78.4,69.4,30.09,East,93,7.0,13.0,74,0.00,,,0.00,Wunderground v.1.15,2013-07-14 23:40:00,
2013-07-14 19:45:00,78.3,68.9,30.10,East,90,7.0,13.0,73,0.00,,,0.00,Wunderground v.1.15,2013-07-14 23:45:00,
2013-07-14 19:50:00,78.3,69.3,30.10,East,86,7.0,13.0,74,0.00,,,0.00,Wunderground v.1.15,2013-07-14 23:50:00,
2013-07-14 19:55:00,78.1,69.1,30.10,East,79,7.0,13.0,74,0.00,,,0.00,Wunderground v.1.15,2013-07-14 23:55:00,
2013-07-14 20:00:00,78.1,68.7,30.10,East,85,10.0,15.0,73,0.00,,,0.00,Wunderground v.1.15,2013-07-15 00:00:00,
2013-07-14 20:05:00,78.1,69.1,30.10,East,96,4.0,15.0,74,0.00,,,0.00,Wunderground v.1.15,2013-07-15 00:05:00,
2013-07-14 20:10:00,78.0,69.0,30.11,East,89,6.0,11.0,74,0.00,,,0.00,Wunderground v.1.15,2013-07-15 00:10:00,
2013-07-14 20:15:00,78.0,69.0,30.11,East,85,7.0,14.0,74,0.00,,,0.00,Wunderground v.1.15,2013-07-15 00:15:00,
2013-07-14 20:20:00,78.1,69.1,30.11,East,85,9.0,12.0,74,0.00,,,0.00,Wunderground v.1.15,2013-07-15 00:20:00,
2013-07-14 20:25:00,78.0,69.4,30.11,ENE,75,4.0,12.0,75,0.00,,,0.00,Wunderground v.1.15,2013-07-15 00:25:00,
2013-07-14 20:30:00,78.0,69.4,30.11,East,87,10.0,14.0,75,0.00,,,0.00,Wunderground v.1.15,2013-07-15 00:30:00,
2013-07-14 20:35:00,77.9,69.3,30.11,East,93,7.0,14.0,75,0.00,,,0.00,Wunderground v.1.15,2013-07-15 00:35:00,
2013-07-14 20:40:00,77.9,69.3,30.11,ESE,117,7.0,10.0,75,0.00,,,0.00,Wunderground v.1.15,2013-07-15 00:40:00,
2013-07-14 20:45:00,77.9,69.3,30.11,ESE,108,8.0,11.0,75,0.00,,,0.00,Wunderground v.1.15,2013-07-15 00:45:00,
2013-07-14 20:46:00,77.9,69.3,30.11,ESE,106,7.0,11.0,75,0.00,,,0.00,Wunderground v.1.15,2013-07-15 00:46:00,
2013-07-14 20:51:00,77.9,69.3,30.11,ESE,105,8.0,12.0,75,0.00,,,0.00,Wunderground v.1.15,2013-07-15 00:51:00,
2013-07-14 20:56:00,77.9,69.3,30.10,ESE,109,9.0,12.0,75,0.00,,,0.00,Wunderground v.1.15,2013-07-15 00:56:00,
2013-07-14 21:01:00,77.7,69.5,30.11,ESE,118,10.0,10.0,76,0.00,,,0.00,Wunderground v.1.15,2013-07-15 01:01:00,
2013-07-14 21:06:00,77.8,68.8,30.11,ESE,113,6.0,12.0,74,0.00,,,0.00,Wunderground v.1.15,2013-07-15 01:06:00,
2013-07-14 21:11:00,77.9,68.9,30.11,ESE,111,6.0,10.0,74,0.00,,,0.00,Wunderground v.1.15,2013-07-15 01:11:00,
2013-07-14 21:16:00,77.9,68.5,30.12,East,98,3.0,10.0,73,0.00,,,0.00,Wunderground v.1.15,2013-07-15 01:16:00,
2013-07-14 21:21:00,78.0,68.6,30.13,East,90,7.0,12.0,73,0.00,,,0.00,Wunderground v.1.15,2013-07-15 01:21:00,
2013-07-14 21:26:00,78.0,68.6,30.13,ESE,103,7.0,12.0,73,0.00,,,0.00,Wunderground v.1.15,2013-07-15 01:26:00,
2013-07-14 21:31:00,78.1,68.3,30.13,ESE,107,6.0,9.0,72,0.00,,,0.00,Wunderground v.1.15,2013-07-15 01:31:00,
2013-07-14 21:36:00,78.0,68.6,30.13,ESE,105,6.0,9.0,73,0.00,,,0.00,Wunderground v.1.15,2013-07-15 01:36:00,
2013-07-14 21:41:00,77.9,68.5,30.13,East,86,3.0,7.0,73,0.00,,,0.00,Wunderground v.1.15,2013-07-15 01:41:00,
2013-07-14 21:46:00,77.7,68.7,30.13,SE,124,2.0,7.0,74,0.00,,,0.00,Wunderground v.1.15,2013-07-15 01:46:00,
2013-07-14 21:51:00,77.6,68.7,30.13,ESE,119,3.0,5.0,74,0.00,,,0.00,Wunderground v.1.15,2013-07-15 01:51:00,
2013-07-14 21:56:00,77.4,68.5,30.13,ESE,103,5.0,5.0,74,0.00,,,0.00,Wunderground v.1.15,2013-07-15 01:56:00,
2013-07-14 22:01:00,77.4,68.5,30.14,East,94,5.0,8.0,74,0.00,,,0.00,Wunderground v.1.15,2013-07-15 02:01:00,
2013-07-14 22:06:00,77.2,68.7,30.14,ENE,77,5.0,5.0,75,0.00,,,0.00,Wunderground v.1.15,2013-07-15 02:06:00,
2013-07-14 22:11:00,77.1,68.6,30.14,ENE,78,4.0,10.0,75,0.00,,,0.00,Wunderground v.1.15,2013-07-15 02:11:00,
2013-07-14 22:16:00,77.1,68.6,30.14,ENE,67,7.0,7.0,75,0.00,,,0.00,Wunderground v.1.15,2013-07-15 02:16:00,
2013-07-14 22:21:00,76.9,69.1,30.14,ESE,102,5.0,9.0,77,0.00,,,0.00,Wunderground v.1.15,2013-07-15 02:21:00,
2013-07-14 22:26:00,77.1,68.6,30.14,NE,48,6.0,9.0,75,0.00,,,0.00,Wunderground v.1.15,2013-07-15 02:26:00,
2013-07-14 22:31:00,76.9,68.8,30.15,East,84,8.0,11.0,76,0.00,,,0.00,Wunderground v.1.15,2013-07-15 02:31:00,
2013-07-14 22:32:00,76.9,68.8,30.15,East,93,7.0,11.0,76,0.00,,,0.00,Wunderground v.1.15,2013-07-15 02:32:00,
2013-07-14 22:37:00,76.8,69.0,30.15,East,87,7.0,7.0,77,0.00,,,0.00,Wunderground v.1.15,2013-07-15 02:37:00,
2013-07-14 22:42:00,76.7,68.9,30.15,East,84,5.0,9.0,77,0.00,,,0.00,Wunderground v.1.15,2013-07-15 02:42:00,
2013-07-14 22:47:00,76.7,68.9,30.15,ENE,69,8.0,8.0,77,0.00,,,0.00,Wunderground v.1.15,2013-07-15 02:47:00,
2013-07-14 22:52:00,76.6,68.8,30.15,East,96,4.0,8.0,77,0.00,,,0.00,Wunderground v.1.15,2013-07-15 02:52:00,
2013-07-14 22:57:00,76.4,69.0,30.15,SE,125,3.0,4.0,78,0.00,,,0.00,Wunderground v.1.15,2013-07-15 02:57:00,
2013-07-14 23:02:00,76.2,68.8,30.15,SE,127,3.0,5.0,78,0.00,,,0.00,Wunderground v.1.15,2013-07-15 03:02:00,
2013-07-14 23:07:00,76.1,68.7,30.15,ESE,120,2.0,3.0,78,0.00,,,0.00,Wunderground v.1.15,2013-07-15 03:07:00,
2013-07-14 23:12:00,75.9,68.5,30.15,ENE,70,2.0,4.0,78,0.00,,,0.00,Wunderground v.1.15,2013-07-15 03:12:00,
2013-07-14 23:17:00,76.0,68.6,30.15,East,93,2.0,3.0,78,0.00,,,0.00,Wunderground v.1.15,2013-07-15 03:17:00,
2013-07-14 23:22:00,76.4,68.7,30.15,East,80,4.0,8.0,77,0.00,,,0.00,Wunderground v.1.15,2013-07-15 03:22:00,
2013-07-14 23:27:00,76.4,68.7,30.15,East,89,3.0,6.0,77,0.00,,,0.00,Wunderground v.1.15,2013-07-15 03:27:00,
2013-07-14 23:32:00,76.4,68.7,30.16,East,96,4.0,8.0,77,0.00,,,0.00,Wunderground v.1.15,2013-07-15 03:32:00,
2013-07-14 23:37:00,76.3,68.2,30.16,East,98,4.0,4.0,76,0.00,,,0.00,Wunderground v.1.15,2013-07-15 03:37:00,
2013-07-14 23:42:00,76.3,68.2,30.16,ESE,108,5.0,7.0,76,0.00,,,0.00,Wunderground v.1.15,2013-07-15 03:42:00,
2013-07-14 23:47:00,76.4,68.3,30.16,ESE,111,6.0,8.0,76,0.00,,,0.00,Wunderground v.1.15,2013-07-15 03:47:00,
2013-07-14 23:52:00,76.2,68.1,30.16,ESE,103,7.0,11.0,76,0.00,,,0.00,Wunderground v.1.15,2013-07-15 03:52:00,
2013-07-14 23:57:00,76.5,68.0,30.16,ESE,122,9.0,10.0,75,0.00,,,0.00,Wunderground v.1.15,2013-07-15 03:57:00,